DW2270 Weather Reports


Display with metric or nautical units.
time (UTC)temp
F
wind
direction
speed
MPH
gust
MPH
rain 1hr
in
rain 24hr
in
rain mn
in
humidity
%
barometer
mb
20260504150200 74 155 2.0 8.0 0.00 0.00 0.00 63 1015.5
20260504130734 60 71 0.0 3.0 0.00 0.00 0.00 8 1015.3
20260504100257 58 107 0.0 0.0 0.00 0.00 0.00 28 1015.2
20260504050544 63 108 0.0 0.0 0.00 0.00 0.00 66 1017.6
20260504045558 64 108 0.0 0.0 0.00 0.00 0.00 66 1017.6
20260504044609 64 108 0.0 0.0 0.00 0.00 0.00 67 1017.8
20260504043536 65 108 0.0 0.0 0.00 0.00 0.00 66 1017.9
20260504042520 65 108 0.0 0.0 0.00 0.00 0.00 66 1017.8
20260504041523 66 108 0.0 0.0 0.00 0.00 0.00 66 1017.8
20260504040450 66 108 0.0 0.0 0.00 0.00 0.00 64 1017.8
20260504035423 67 108 0.0 0.0 0.00 0.00 0.00 63 1017.8
20260504034414 67 108 0.0 0.0 0.00 0.00 0.00 62 1017.7
20260504033350 67 108 0.0 0.0 0.00 0.00 0.00 62 1017.8
20260504032318 68 108 0.0 2.0 0.00 0.00 0.00 61 1017.8
20260504031304 68 96 0.0 0.0 0.00 0.00 0.00 61 1017.7
20260504030310 68 96 0.0 2.0 0.00 0.00 0.00 60 1017.7
20260504025311 68 98 0.0 2.0 0.00 0.00 0.00 60 1017.5
20260504024250 68 223 0.0 3.0 0.00 0.00 0.00 59 1017.4
20260504023240 69 90 0.0 2.0 0.00 0.00 0.00 59 1017.4
20260504022218 69 66 0.0 3.0 0.00 0.00 0.00 58 1017.4
20260504021218 70 109 0.0 1.0 0.00 0.00 0.00 57 1017.2
20260504020219 70 109 0.0 0.0 0.00 0.00 0.00 57 1017.1
20260504015228 71 109 0.0 3.0 0.00 0.00 0.00 55 1017.1
20260504014222 71 81 0.0 0.0 0.00 0.00 0.00 54 1017.0
20260504013240 72 81 0.0 0.0 0.00 0.00 0.00 54 1016.9
20260504012300 73 0 0.0 0.0 0.00 0.00 0.00 52 1016.8
20260504011254 73 81 0.0 0.0 0.00 0.00 0.00 50 1016.8
20260504010316 74 81 0.0 1.0 0.00 0.00 0.00 50 1016.7
20260504004142 75 81 0.0 3.0 0.00 0.00 0.00 46 1016.7
20260504003114 76 132 0.0 3.0 0.00 0.00 0.00 45 1016.8
20260504002127 77 118 0.0 3.0 0.00 0.00 0.00 45 1016.9
20260504001146 77 106 0.0 4.0 0.00 0.00 0.00 44 1016.8
20260503235034 78 92 0.0 2.0 0.00 0.00 0.00 42 1017.0
20260503234046 79 123 0.0 2.0 0.00 0.00 0.00 41 1016.9
20260503233039 79 76 0.0 5.0 0.00 0.00 0.00 39 1017.1
20260503232100 80 161 1.0 6.0 0.00 0.00 0.00 39 1017.0
20260503225938 81 107 1.0 3.0 0.00 0.00 0.00 37 1017.1
20260503224956 82 308 0.0 5.0 0.00 0.00 0.00 37 1017.3
20260503223951 82 77 1.0 8.0 0.00 0.00 0.00 37 1017.3
20260503222949 82 119 1.0 8.0 0.00 0.00 0.00 36 1017.5
20260503221918 82 144 0.0 2.0 0.00 0.00 0.00 36 1017.6
20260503215834 82 75 0.0 2.0 0.00 0.00 0.00 36 1017.7
20260503214855 82 46 0.0 3.0 0.00 0.00 0.00 39 1017.7
20260503213913 82 100 0.0 2.0 0.00 0.00 0.00 38 1017.8
20260503212846 83 350 1.0 7.0 0.00 0.00 0.00 36 1018.2
20260503210734 83 330 0.0 1.0 0.00 0.00 0.00 38 1018.4
20260503205721 83 327 0.0 3.0 0.00 0.00 0.00 37 1018.5
20260503204716 84 328 0.0 4.0 0.00 0.00 0.00 35 1018.7
20260503203722 83 206 1.0 8.0 0.00 0.00 0.00 36 1018.9
20260503201527 84 141 0.0 3.0 0.00 0.00 0.00 36 1019.2
20260503200524 83 112 1.0 3.0 0.00 0.00 0.00 35 1019.5
20260503195516 83 157 0.0 7.0 0.00 0.00 0.00 37 1019.7
20260503194456 82 117 1.0 7.0 0.00 0.00 0.00 37 1019.8
20260503192301 82 329 0.0 3.0 0.00 0.00 0.00 36 1020.1
20260503191246 82 136 1.0 5.0 0.00 0.00 0.00 37 1020.3
20260503190243 82 219 1.0 5.0 0.00 0.00 0.00 37 1020.4
20260503185242 82 332 1.0 4.0 0.00 0.00 0.00 39 1020.5
20260503184216 82 21 0.0 7.0 0.00 0.00 0.00 36 1020.7
20260503183217 82 99 1.0 7.0 0.00 0.00 0.00 37 1020.8
20260503182224 81 137 1.0 2.0 0.00 0.00 0.00 38 1020.9
20260503181245 81 331 0.0 5.0 0.00 0.00 0.00 40 1021.1
20260503180219 81 167 1.0 7.0 0.00 0.00 0.00 38 1021.4
20260503175237 81 201 1.0 7.0 0.00 0.00 0.00 38 1021.6
20260503174222 81 101 0.0 5.0 0.00 0.00 0.00 38 1021.8
20260503173225 81 129 0.0 5.0 0.00 0.00 0.00 40 1021.9
20260503172233 80 160 1.0 5.0 0.00 0.00 0.00 41 1022.2
20260503171245 81 129 1.0 4.0 0.00 0.00 0.00 38 1022.2
20260503170257 80 131 0.0 6.0 0.00 0.00 0.00 41 1022.2